[[{"header":{"parameterUnit":"m.s-1","parameterCategory":1,"la1":30.2991,"la2":30.254,"lo1":-89.0895,"lo2":-89.0444,"dx":0.0017,"dy":0.0017,"nx":28,"ny":28,"refTime":"2022-11-16T09:00:00:Z","depth":0,"parameterNumber":2,"parameterNumberName":"U-component_of_WINDS"},"data":[0,0,0,0,0,0,0,0,0,0,0,0,0,0,0,0,0,0,0,0,0,0,0,0,0,0,0,0,0,0,0,0,0,0,0,0,0,0,0,0,0,0,0,0,0,0,0,0,0,0,0,0,0,0,0,0,0,0,0.1937,0.1937,0,0.1911,0.1911,0.191,0.1933,0.1934,0.1935,0.1936,0.1906,0.1905,0.1903,0,0,0,0,0,0,0,0,0,0,0,0,0,0.2004,0.2003,0.1937,0.1937,0.1936,0.1911,0.1911,0.191,0.1933,0.1934,0.1935,0.1936,0.1907,0.1905,0.1903,0,0,0,0,0,0,0,0,0,0,0,0,0,0.1976,0.2002,0.1937,0.1944,0.1945,0.1911,0.1911,0.191,0.1932,0.1934,0.1935,0.1936,0.1908,0.1905,0.1903,0.186,0,0,0.1895,0.1894,0,0,0,0,0,0,0,0,0.1978,0.1974,0.1944,0.1944,0.1944,0.1927,0.1924,0.1893,0.1932,0.1937,0.1936,0.1937,0.1912,0.1909,0.1901,0.1858,0.1857,0.1895,0.1894,0.1893,0.1892,0,0,0,0,0,0,0,0.198,0.1975,0.1927,0.1943,0.1944,0.1949,0.1946,0.1918,0.1917,0.1937,0.1938,0.1935,0.1912,0.1903,0.1901,0.1857,0.1895,0.1893,0.1892,0.1891,0.1778,0.1777,0,0,0,0,0,0,0.1981,0.1976,0.1927,0.1926,0.1965,0.1946,0.1944,0.1931,0.1917,0.1917,0.1934,0.1936,0.1907,0.1904,0.19,0.1848,0.1893,0.189,0.1889,0.178,0.1778,0.1776,0,0,0,0,0,0,0.1983,0.1977,0.1928,0.1952,0.1946,0.1944,0.1929,0.193,0.1921,0.1915,0.1915,0.1925,0.1908,0.1903,0.187,0.1848,0.1889,0.1887,0.1781,0.1779,0.1777,0.1745,0,0,0,0,0,0,0.1984,0.1977,0.1961,0.1951,0.1945,0.1899,0.1928,0.1928,0.1917,0.192,0.1907,0.1906,0.1909,0.1873,0.1867,0.1845,0.1885,0.1783,0.178,0.1778,0.1748,0.1742,0.1737,0,0,0,0,0,0.1987,0.1952,0.196,0.1954,0.1924,0.1898,0.1894,0.1898,0.1915,0.1898,0.1895,0.1906,0.1852,0.187,0.1863,0.184,0.1785,0.1781,0.1778,0.1751,0.1743,0.1737,0,0,0,0,0,0,0.1958,0.1951,0.1959,0.1921,0.191,0.1902,0.1881,0.189,0.1874,0.1877,0.1883,0.188,0.1845,0.1839,0.186,0.1798,0.1821,0.1816,0.1802,0.1795,0.179,0.1791,0.1883,0,0,0,0,0,0.1947,0.1927,0.1922,0.1888,0.1883,0.1883,0.1871,0.1876,0.1865,0.186,0.1854,0.1842,0.1822,0.1809,0.179,0.1748,0.1746,0.1729,0.1723,0.1719,0.1714,0.1692,0.1684,0.1765,0.1765,0.1765,0,0,0.1924,0.1918,0.1905,0.1882,0.1874,0.1853,0.1878,0.1854,0.1838,0.1856,0.1824,0.182,0.1807,0.1769,0.1752,0.1763,0.1691,0.1715,0.1711,0.1708,0.1687,0.168,0.1673,0.1763,0.1763,0.1763,0,0,0.1871,0.1865,0.1836,0.1829,0.1817,0.1818,0.1811,0.1802,0.18,0.1768,0.1781,0.1762,0.1728,0.1718,0.1709,0.1655,0.1664,0.1649,0.1618,0.1597,0.159,0.1584,0.1564,0.1557,0.1644,0.1644,0.1644,0,0.1844,0.1813,0.182,0.1795,0.1785,0.1802,0.1773,0.1765,0.1747,0.1739,0.1753,0.1711,0.1703,0.1664,0.1651,0.1643,0.1635,0.1649,0.1591,0.1585,0.158,0.1561,0.1553,0.1642,0.1642,0.1643,0.1643,0,0.1779,0.1758,0.1736,0.172,0.1707,0.168,0.1683,0.167,0.1676,0.1676,0.1644,0.1636,0.1616,0.1608,0.1613,0.1569,0.1576,0.159,0.1613,0.157,0.1552,0.1545,0.1639,0.164,0.1641,0.1641,0,0,0.1705,0.1695,0.1687,0.168,0.1669,0.1652,0.1627,0.1609,0.1596,0.1585,0.1563,0.1534,0.1548,0.1537,0.1542,0.1523,0.148,0.1539,0.1539,0.1528,0.1431,0.1419,0.141,0.1488,0.1486,0.1485,0.1431,0,0.1651,0.1607,0.1614,0.1571,0.155,0.1567,0.1545,0.1536,0.1535,0.1517,0.1517,0.1496,0.1516,0.1509,0.1492,0.1489,0.146,0.1493,0.1466,0.1465,0.1467,0.1401,0.1389,0.1338,0.1424,0.1423,0.1422,0,0.1581,0.1568,0.1523,0.1517,0.1509,0.1488,0.1473,0.1456,0.1446,0.1447,0.1436,0.1445,0.1419,0.1445,0.1409,0.1431,0.1421,0.1418,0.1416,0.1412,0.144,0.1394,0.1322,0.1314,0.1412,0.1413,0.1413,0,0.153,0.1501,0.1471,0.1465,0.1457,0.1442,0.1438,0.143,0.1419,0.1405,0.1398,0.1382,0.1372,0.1359,0.1363,0.1381,0.1326,0.1352,0.1326,0.1325,0.1311,0.1312,0.1235,0.1307,0.1308,0.1308,0.1308,0,0.1468,0.144,0.1448,0.1429,0.1398,0.1407,0.1376,0.1374,0.1367,0.1347,0.1361,0.1343,0.135,0.1332,0.1336,0.1305,0.1301,0.1301,0.1301,0.1298,0.1298,0.129,0.1293,0.1306,0.1306,0.1307,0.1307,0,0.1405,0.1409,0.1377,0.1373,0.1371,0.1349,0.1345,0.1327,0.1328,0.1304,0.1299,0.13,0.128,0.1284,0.1261,0.1263,0.1225,0.1231,0.1228,0.1229,0.1202,0.1204,0.1116,0.1105,0.1186,0.1185,0.1185,0,0.1364,0.1343,0.1337,0.1326,0.1321,0.1302,0.1291,0.13,0.1288,0.1277,0.126,0.1241,0.1227,0.1194,0.1192,0.1175,0.118,0.1151,0.1177,0.1175,0.1178,0.1179,0.1177,0.1144,0.1144,0.1143,0.1142,0,0.1291,0.1295,0.1279,0.1264,0.1251,0.124,0.123,0.122,0.1228,0.1214,0.1194,0.1183,0.116,0.1141,0.1126,0.1121,0.1132,0.1134,0.1127,0.1123,0.1121,0.1121,0.1212,0.1136,0.1136,0.1137,0.1137,0.1137,0.1237,0.1219,0.1212,0.1194,0.1188,0.1179,0.1162,0.1162,0.1146,0.1129,0.1135,0.1112,0.1105,0.1085,0.1079,0.1061,0.1072,0.1062,0.1059,0.1056,0.1052,0.1126,0.1059,0.1059,0.1059,0.1059,0.1059,0,0.1163,0.116,0.1144,0.113,0.1116,0.113,0.112,0.1108,0.1088,0.108,0.1066,0.1043,0.1025,0.1024,0.1007,0.0993,0.0998,0.0988,0.0988,0.0987,0.1044,0.1051,0.0985,0.0985,0.0985,0.0985,0.0985,0.0985,0.1123,0.1093,0.1097,0.1064,0.1062,0.104,0.1033,0.1024,0.1018,0.0993,0.0978,0.0978,0.0973,0.0956,0.0941,0.0941,0.0933,0.0921,0.0923,0.0976,0.0983,0.099,0.0997,0.092,0.092,0.0868,0.0867,0.0867]},{"header":{"parameterUnit":"m.s-1","parameterCategory":1,"la1":30.2991,"la2":30.254,"lo1":-89.0895,"lo2":-89.0444,"dx":0.0017,"dy":0.0017,"nx":28,"ny":28,"refTime":"2022-11-16T09:00:00:Z","depth":0,"parameterNumber":3,"parameterNumberName":"V-component_of_WINDS"},"data":[0,0,0,0,0,0,0,0,0,0,0,0,0,0,0,0,0,0,0,0,0,0,0,0,0,0,0,0,0,0,0,0,0,0,0,0,0,0,0,0,0,0,0,0,0,0,0,0,0,0,0,0,0,0,0,0,0,0,-6.3581,-6.3583,0,-6.3741,-6.3743,-6.3745,-6.3656,-6.3652,-6.3647,-6.3643,-6.3803,-6.3811,-6.3819,0,0,0,0,0,0,0,0,0,0,0,0,0,-6.3194,-6.3202,-6.3581,-6.3583,-6.3585,-6.3741,-6.3743,-6.3745,-6.3657,-6.3651,-6.3646,-6.3641,-6.38,-6.381,-6.382,0,0,0,0,0,0,0,0,0,0,0,0,0,-6.3359,-6.3204,-6.3581,-6.356,-6.356,-6.3741,-6.3743,-6.3746,-6.3658,-6.3651,-6.3645,-6.3639,-6.3797,-6.3809,-6.3821,-6.403,0,0,-6.3859,-6.3865,0,0,0,0,0,0,0,0,-6.335,-6.3373,-6.3561,-6.3562,-6.3562,-6.3672,-6.3665,-6.3841,-6.366,-6.3621,-6.3643,-6.3635,-6.3764,-6.3779,-6.3823,-6.4038,-6.4045,-6.386,-6.3868,-6.3873,-6.3877,0,0,0,0,0,0,0,-6.3339,-6.3366,-6.3644,-6.3564,-6.3564,-6.3541,-6.3557,-6.3698,-6.3727,-6.3623,-6.3617,-6.3638,-6.3763,-6.3811,-6.3826,-6.4047,-6.386,-6.3871,-6.3879,-6.3884,-6.444,-6.4447,0,0,0,0,0,0,-6.3329,-6.3357,-6.3639,-6.3649,-6.3438,-6.3553,-6.3571,-6.3643,-6.3726,-6.3732,-6.3643,-6.3633,-6.3793,-6.3812,-6.3832,-6.4082,-6.3873,-6.3885,-6.3892,-6.4433,-6.4441,-6.4449,0,0,0,0,0,0,-6.3321,-6.3355,-6.3633,-6.3502,-6.3535,-6.3567,-6.3649,-6.365,-6.3698,-6.3741,-6.3745,-6.3688,-6.3789,-6.3814,-6.3982,-6.4086,-6.3891,-6.3902,-6.4424,-6.4435,-6.4445,-6.4584,0,0,0,0,0,0,-6.331,-6.3353,-6.3434,-6.3504,-6.3543,-6.3782,-6.3655,-6.3658,-6.3721,-6.3709,-6.3783,-6.3789,-6.3786,-6.3964,-6.3994,-6.41,-6.3912,-6.4415,-6.4429,-6.4442,-6.457,-6.4598,-6.4622,0,0,0,0,0,-6.3297,-6.3466,-6.3439,-6.3473,-6.3645,-6.3789,-6.381,-6.3804,-6.3729,-6.381,-6.3837,-6.3787,-6.407,-6.3981,-6.4015,-6.4126,-6.4408,-6.4425,-6.4441,-6.4559,-6.4593,-6.4622,0,0,0,0,0,0,-6.3406,-6.3475,-6.3445,-6.3642,-6.3711,-6.3773,-6.3876,-6.384,-6.393,-6.3915,-6.3901,-6.3919,-6.4094,-6.4126,-6.4027,-6.4332,-6.4227,-6.4251,-6.4305,-6.4338,-6.4363,-6.4352,-6.3922,0,0,0,0,0,-6.3453,-6.3566,-6.3619,-6.3787,-6.3823,-6.3844,-6.3906,-6.3895,-6.3965,-6.3993,-6.4032,-6.41,-6.4203,-6.4272,-6.437,-6.4574,-6.4588,-6.4667,-6.4693,-6.4714,-6.4735,-6.4844,-6.488,-6.4503,-6.4503,-6.4502,0,0,-6.3551,-6.3603,-6.3675,-6.3811,-6.3862,-6.3977,-6.3869,-6.3995,-6.408,-6.4011,-6.4172,-6.4204,-6.4278,-6.4465,-6.4549,-6.4497,-6.4842,-6.4735,-6.4751,-6.4761,-6.4865,-6.49,-6.4932,-6.4514,-6.4512,-6.451,0,0,-6.379,-6.384,-6.3986,-6.404,-6.412,-6.4132,-6.4167,-6.4236,-6.4254,-6.4416,-6.4367,-6.4466,-6.4646,-6.4701,-6.4752,-6.5011,-6.4967,-6.5042,-6.5179,-6.5286,-6.5315,-6.5341,-6.5433,-6.5466,-6.5063,-6.5063,-6.5064,0,-6.3902,-6.4075,-6.4065,-6.4196,-6.4257,-6.4201,-6.4348,-6.44,-6.4507,-6.455,-6.449,-6.4714,-6.4761,-6.4959,-6.5022,-6.5066,-6.5104,-6.5034,-6.5312,-6.5338,-6.5362,-6.545,-6.5484,-6.5072,-6.5071,-6.507,-6.5069,0,-6.4208,-6.4329,-6.4437,-6.4544,-6.4616,-6.4754,-6.4764,-6.4839,-6.4821,-6.4839,-6.5004,-6.5057,-6.5165,-6.5211,-6.5194,-6.5407,-6.5372,-6.5313,-6.5207,-6.5407,-6.5489,-6.5523,-6.5084,-6.5081,-6.5079,-6.5077,0,0,-6.4521,-6.462,-6.466,-6.4707,-6.479,-6.4883,-6.5017,-6.5124,-6.5188,-6.5263,-6.5375,-6.5528,-6.5473,-6.5532,-6.5521,-6.5614,-6.5815,-6.5543,-6.5545,-6.5592,-6.6052,-6.6097,-6.6136,-6.5786,-6.5793,-6.5798,-6.6046,0,-6.4765,-6.5002,-6.4997,-6.5217,-6.5328,-6.5275,-6.5392,-6.5455,-6.5475,-6.5571,-6.5591,-6.5701,-6.562,-6.5655,-6.5746,-6.5772,-6.5907,-6.5753,-6.5889,-6.5894,-6.5873,-6.6178,-6.6226,-6.6458,-6.6078,-6.6083,-6.6087,0,-6.5081,-6.5169,-6.54,-6.5467,-6.5513,-6.5619,-6.5715,-6.5808,-6.5877,-6.5885,-6.595,-6.5924,-6.6059,-6.5949,-6.6133,-6.6029,-6.6084,-6.6105,-6.6113,-6.6126,-6.6003,-6.62,-6.6531,-6.6566,-6.6137,-6.6133,-6.613,0,-6.5286,-6.5461,-6.5622,-6.5664,-6.5746,-6.5821,-6.5858,-6.5921,-6.5985,-6.6069,-6.611,-6.6208,-6.6262,-6.6337,-6.6338,-6.6258,-6.6525,-6.6415,-6.6534,-6.6534,-6.6593,-6.659,-6.6939,-6.6628,-6.6628,-6.6627,-6.6626,0,-6.556,-6.5703,-6.5716,-6.5815,-6.5974,-6.5965,-6.6122,-6.6151,-6.6208,-6.631,-6.627,-6.6367,-6.6361,-6.6459,-6.6459,-6.6612,-6.6636,-6.6645,-6.6644,-6.665,-6.6649,-6.6686,-6.667,-6.6636,-6.6634,-6.6632,-6.6631,0,-6.5816,-6.583,-6.6002,-6.6065,-6.6084,-6.6199,-6.6252,-6.6345,-6.6361,-6.6491,-6.6521,-6.6546,-6.6659,-6.6666,-6.6796,-6.6796,-6.6982,-6.6962,-6.6959,-6.6956,-6.7075,-6.7064,-6.7461,-6.7512,-6.7168,-6.7171,-6.7174,0,-6.599,-6.6099,-6.6174,-6.6241,-6.6283,-6.639,-6.6456,-6.6451,-6.652,-6.6607,-6.669,-6.6799,-6.6886,-6.7068,-6.7096,-6.7195,-6.7178,-6.731,-6.7192,-6.7195,-6.718,-6.7174,-6.7185,-6.7333,-6.7337,-6.734,-6.7343,0,-6.6297,-6.6298,-6.6395,-6.6495,-6.6574,-6.6652,-6.6724,-6.678,-6.6784,-6.6863,-6.6979,-6.7047,-6.7179,-6.7288,-6.7384,-6.742,-6.7383,-6.7379,-6.7412,-6.742,-6.7413,-6.7418,-6.7022,-6.737,-6.7368,-6.7366,-6.7364,-6.7363,-6.6518,-6.6612,-6.668,-6.6789,-6.6843,-6.6911,-6.7002,-6.7029,-6.7126,-6.7235,-6.7225,-6.7353,-6.7418,-6.7544,-6.7587,-6.7686,-6.7641,-6.7688,-6.77,-6.7712,-6.7725,-6.7397,-6.7703,-6.7702,-6.7701,-6.7701,-6.77,0,-6.6823,-6.6864,-6.6964,-6.7067,-6.7152,-6.711,-6.7187,-6.7261,-6.7374,-6.7439,-6.7525,-6.7658,-6.7762,-6.7799,-6.79,-6.7972,-6.7957,-6.7999,-6.7994,-6.8002,-6.776,-6.7721,-6.8009,-6.8009,-6.8009,-6.8009,-6.8009,-6.8009,-6.6992,-6.715,-6.7159,-6.7343,-6.7381,-6.7508,-6.7556,-6.7618,-6.7669,-6.7819,-6.7906,-6.793,-6.7983,-6.8087,-6.8181,-6.8189,-6.8228,-6.8277,-6.8278,-6.8051,-6.802,-6.799,-6.7954,-6.8286,-6.8286,-6.8512,-6.8515,-6.8516]}]]